Погода в Старо-Щедринской

Россия / Чеченская Республика     43˚28′04″N   46˚06′19″E
темп.,
°C
ветер,
м/с
пор.,
м/с
влажн.,
%
обл.,
%
осадки,
мм/ч
давл.,
гПа
погр.,
м
15 января, пт
пт1500:00+5˚св249068 0.0 1006112
03:00+4˚всв478772 0.0 1004304
06:00+3˚всв5881100 0.0 1001411
09:00+3˚сз3481100 0.0 1001316
12:00+4˚з4672100 0.0 1004447
15:00+7˚з4867100 0.0 1006491
18:00+4˚сз367866 0.0 1009176
21:00+5˚зсз4106653 0.0 1012793
16 января, сб
сб1600:00+3˚ююз237397 0.0 101365
03:00+3˚сз477899 0.1 1016493
06:00+1˚зюз239192 0.0 101793
09:00+2˚ююв128360 0.0 1018156
12:00+5˚всв46611 0.0 1017732
15:00+6˚в57550 0.0 1016880
18:00+3˚всв38725 0.0 1016403
21:00+2˚св368343 0.0 1016253
17 января, вс
вс1700:00+2˚всв2586100 0.0 1014331
03:00+3˚всв2488100 0.0 1012286
06:00+3˚всв3691100 0.2 1010374
09:00+3˚всв4789100 0.4 1008420
12:00+4˚св4786100 0.3 1006426
15:00+4˚св4786100 0.4 1004416
18:00+3˚св4686100 0.2 1005380
21:00+3˚св3586100 0.3 1004348
18 января, пн
пн1800:00+2˚св3486100 0.0 1004307
03:00+1˚св2486100 0.0 1002284
06:00+1˚сз4687100 0.0 1005361
09:00+1˚зсз5884100 0.0 1009495
12:00+2˚зсз71170100 0.0 1010839
15:00+2˚зсз7116799 0.1 1012861
18:00+1˚зсз5860100 0.0 1015964
21:00зсз5861100 0.0 1016745
19 января, вт
вт1900:00−2˚зсз357092 0.0 1018276
03:00−2˚сз247076 0.0 1019255
06:00−3˚сз3566100 0.0 1020532
09:00−2˚зсз346192 0.0 1022560
12:00−1˚ссз1148100 0.0 1020670
15:00в3445100 0.0 1019598
18:00−1˚всв3652100 0.1 1020592
21:00−3˚св1293100 1.3 1021180